| time (UTC) | temp F | wind direction | speed MPH | gust MPH | rain 1hr in | rain 24hr in | rain mn in | humidity % | barometer mb |
| 20260505014135 | 61 | 299 | 4.0 | 12.0 | 0.00 | 0.00 | 0.00 | 48 | 1009.2 |
| 20260505013135 | 62 | 277 | 3.0 | 12.0 | 0.00 | 0.00 | 0.00 | 48 | 1008.9 |
| 20260505012135 | 62 | 280 | 4.0 | 12.0 | 0.00 | 0.00 | 0.00 | 47 | 1008.7 |
| 20260505011137 | 63 | 307 | 3.0 | 13.0 | 0.00 | 0.00 | 0.00 | 47 | 1008.7 |
| 20260505010136 | 63 | 276 | 6.0 | 13.0 | 0.00 | 0.00 | 0.00 | 45 | 1008.5 |
| 20260505005135 | 64 | 287 | 7.0 | 13.0 | 0.00 | 0.00 | 0.00 | 45 | 1008.1 |
| 20260505004135 | 64 | 246 | 7.0 | 13.0 | 0.00 | 0.00 | 0.00 | 44 | 1007.8 |
| 20260505003136 | 65 | 287 | 4.0 | 13.0 | 0.00 | 0.00 | 0.00 | 43 | 1007.7 |
| 20260505002136 | 66 | 165 | 5.0 | 13.0 | 0.00 | 0.00 | 0.00 | 41 | 1007.5 |
| 20260505001135 | 66 | 277 | 5.0 | 11.0 | 0.00 | 0.00 | 0.00 | 40 | 1007.1 |
| 20260505000135 | 67 | 80 | 5.0 | 11.0 | 0.00 | 0.00 | 0.00 | 37 | 1006.9 |
| 20260504235136 | 67 | 333 | 4.0 | 11.0 | 0.00 | 0.00 | 0.00 | 37 | 1006.7 |
| 20260504234138 | 67 | 296 | 4.0 | 11.0 | 0.00 | 0.00 | 0.00 | 37 | 1006.3 |
| 20260504233136 | 68 | 20 | 2.0 | 11.0 | 0.00 | 0.00 | 0.00 | 36 | 1006.1 |
| 20260504232135 | 69 | 234 | 3.0 | 11.0 | 0.00 | 0.00 | 0.00 | 35 | 1006.2 |
| 20260504231135 | 69 | 237 | 6.0 | 11.0 | 0.00 | 0.00 | 0.00 | 35 | 1005.9 |
| 20260504230135 | 69 | 299 | 5.0 | 11.0 | 0.00 | 0.00 | 0.00 | 35 | 1005.9 |
| 20260504225135 | 70 | 294 | 3.0 | 11.0 | 0.00 | 0.00 | 0.00 | 35 | 1005.8 |
| 20260504224135 | 71 | 343 | 4.0 | 13.0 | 0.00 | 0.00 | 0.00 | 34 | 1005.7 |
| 20260504223135 | 71 | 28 | 6.0 | 13.0 | 0.00 | 0.00 | 0.00 | 34 | 1005.6 |
| 20260504222137 | 71 | 297 | 5.0 | 13.0 | 0.00 | 0.00 | 0.00 | 33 | 1005.6 |
| 20260504221136 | 71 | 327 | 5.0 | 13.0 | 0.00 | 0.00 | 0.00 | 34 | 1005.7 |
| 20260504220138 | 71 | 283 | 5.0 | 15.0 | 0.00 | 0.00 | 0.00 | 33 | 1005.7 |
| 20260504215135 | 72 | 190 | 5.0 | 15.0 | 0.00 | 0.00 | 0.00 | 33 | 1005.7 |
| 20260504214136 | 73 | 317 | 5.0 | 15.0 | 0.00 | 0.00 | 0.00 | 31 | 1005.7 |
| 20260504213135 | 72 | 327 | 2.0 | 18.0 | 0.00 | 0.00 | 0.00 | 32 | 1005.6 |
| 20260504212135 | 73 | 78 | 6.0 | 18.0 | 0.00 | 0.00 | 0.00 | 32 | 1005.7 |
| 20260504211135 | 73 | 16 | 6.0 | 18.0 | 0.00 | 0.00 | 0.00 | 31 | 1005.7 |
| 20260504210137 | 74 | 257 | 5.0 | 18.0 | 0.00 | 0.00 | 0.00 | 32 | 1005.7 |
| 20260504205136 | 73 | 124 | 4.0 | 18.0 | 0.00 | 0.00 | 0.00 | 32 | 1005.6 |
| 20260504204136 | 73 | 316 | 8.0 | 18.0 | 0.00 | 0.00 | 0.00 | 31 | 1005.5 |
| 20260504203138 | 73 | 339 | 6.0 | 16.0 | 0.00 | 0.00 | 0.00 | 31 | 1005.3 |
| 20260504202135 | 73 | 9 | 5.0 | 16.0 | 0.00 | 0.00 | 0.00 | 31 | 1005.5 |
| 20260504201137 | 73 | 266 | 6.0 | 16.0 | 0.00 | 0.00 | 0.00 | 30 | 1005.5 |
| 20260504200135 | 72 | 267 | 6.0 | 14.0 | 0.00 | 0.00 | 0.00 | 30 | 1005.7 |
| 20260504195135 | 74 | 344 | 5.0 | 17.0 | 0.00 | 0.00 | 0.00 | 29 | 1005.7 |
| 20260504194135 | 74 | 286 | 5.0 | 17.0 | 0.00 | 0.00 | 0.00 | 29 | 1005.7 |
| 20260504193137 | 75 | 303 | 8.0 | 22.0 | 0.00 | 0.00 | 0.00 | 29 | 1005.7 |
| 20260504192136 | 76 | 322 | 5.0 | 22.0 | 0.00 | 0.00 | 0.00 | 28 | 1005.7 |
| 20260504191135 | 77 | 333 | 7.0 | 22.0 | 0.00 | 0.00 | 0.00 | 28 | 1005.6 |
| 20260504190136 | 78 | 273 | 10.0 | 22.0 | 0.00 | 0.00 | 0.00 | 27 | 1005.9 |
| 20260504185136 | 76 | 351 | 4.0 | 22.0 | 0.00 | 0.00 | 0.00 | 28 | 1005.9 |
| 20260504184137 | 75 | 309 | 10.0 | 22.0 | 0.00 | 0.00 | 0.00 | 29 | 1006.0 |
| 20260504183136 | 73 | 328 | 10.0 | 17.0 | 0.00 | 0.00 | 0.00 | 30 | 1006.2 |
| 20260504182136 | 74 | 3 | 8.0 | 20.0 | 0.00 | 0.00 | 0.00 | 29 | 1006.1 |
| 20260504181136 | 75 | 266 | 9.0 | 20.0 | 0.00 | 0.00 | 0.00 | 28 | 1006.3 |
| 20260504180136 | 77 | 353 | 10.0 | 20.0 | 0.00 | 0.00 | 0.00 | 27 | 1006.3 |
| 20260504175136 | 76 | 241 | 5.0 | 20.0 | 0.00 | 0.00 | 0.00 | 30 | 1006.3 |
| 20260504174135 | 75 | 262 | 6.0 | 20.0 | 0.00 | 0.00 | 0.00 | 30 | 1006.4 |
| 20260504173135 | 74 | 1 | 10.0 | 20.0 | 0.00 | 0.00 | 0.00 | 31 | 1006.5 |
| 20260504172136 | 72 | 107 | 6.0 | 17.0 | 0.00 | 0.00 | 0.00 | 33 | 1006.5 |
| 20260504171135 | 71 | 302 | 6.0 | 17.0 | 0.00 | 0.00 | 0.00 | 33 | 1006.6 |
| 20260504170137 | 70 | 7 | 7.0 | 18.0 | 0.00 | 0.00 | 0.00 | 33 | 1006.7 |
| 20260504160136 | 69 | 261 | 7.0 | 15.0 | 0.00 | 0.00 | 0.00 | 36 | 1006.8 |
| 20260504151136 | 66 | 264 | 6.0 | 17.0 | 0.00 | 0.00 | 0.00 | 38 | 1007.8 |
| 20260504150136 | 66 | 325 | 5.0 | 17.0 | 0.00 | 0.00 | 0.00 | 41 | 1008.0 |
| 20260504141135 | 63 | 316 | 6.0 | 16.0 | 0.00 | 0.00 | 0.00 | 44 | 1008.4 |
| 20260504140136 | 63 | 278 | 7.0 | 16.0 | 0.00 | 0.00 | 0.00 | 45 | 1008.5 |
| 20260504130135 | 57 | 350 | 6.0 | 10.0 | 0.00 | 0.00 | 0.00 | 52 | 1009.2 |
| 20260504120136 | 50 | 279 | 3.0 | 8.0 | 0.00 | 0.00 | 0.00 | 62 | 1009.5 |
| 20260504110136 | 46 | 295 | 1.0 | 4.0 | 0.00 | 0.00 | 0.00 | 66 | 1009.5 |
| 20260504100135 | 43 | 274 | 1.0 | 3.0 | 0.00 | 0.00 | 0.00 | 70 | 1009.5 |
| 20260504090136 | 43 | 285 | 1.0 | 3.0 | 0.00 | 0.00 | 0.00 | 70 | 1009.4 |
| 20260504081136 | 43 | 243 | 1.0 | 3.0 | 0.00 | 0.00 | 0.00 | 71 | 1009.5 |
| 20260504080136 | 42 | 285 | 0.0 | 2.0 | 0.00 | 0.00 | 0.00 | 71 | 1009.5 |
| 20260504070136 | 41 | 242 | 0.0 | 2.0 | 0.00 | 0.00 | 0.00 | 73 | 1009.3 |
| 20260504060138 | 40 | 289 | 0.0 | 4.0 | 0.00 | 0.00 | 0.00 | 74 | 1009.4 |
| 20260504050134 | 37 | 283 | 2.0 | 3.0 | 0.00 | 0.00 | 0.00 | 75 | 1009.5 |
| 20260504045135 | 37 | 283 | 2.0 | 3.0 | 0.00 | 0.00 | 0.00 | 75 | 1009.5 |
| 20260504044134 | 37 | 285 | 2.0 | 3.0 | 0.00 | 0.00 | 0.00 | 75 | 1009.5 |
| 20260504043135 | 37 | 293 | 1.0 | 3.0 | 0.00 | 0.00 | 0.00 | 75 | 1009.5 |
| 20260504042135 | 37 | 298 | 2.0 | 3.0 | 0.00 | 0.00 | 0.00 | 74 | 1009.4 |
| 20260504041135 | 37 | 301 | 1.0 | 3.0 | 0.00 | 0.00 | 0.00 | 74 | 1009.4 |
| 20260504040135 | 37 | 301 | 1.0 | 3.0 | 0.00 | 0.00 | 0.00 | 73 | 1009.3 |
| 20260504035134 | 38 | 290 | 1.0 | 3.0 | 0.00 | 0.00 | 0.00 | 72 | 1009.2 |
| 20260504034135 | 38 | 296 | 1.0 | 3.0 | 0.00 | 0.00 | 0.00 | 72 | 1009.1 |
| 20260504033135 | 38 | 299 | 1.0 | 2.0 | 0.00 | 0.00 | 0.00 | 71 | 1009.1 |
| 20260504032135 | 38 | 281 | 1.0 | 2.0 | 0.00 | 0.00 | 0.00 | 70 | 1009.2 |
| 20260504031135 | 39 | 278 | 1.0 | 2.0 | 0.00 | 0.00 | 0.00 | 70 | 1009.3 |
| 20260504030135 | 39 | 285 | 1.0 | 2.0 | 0.00 | 0.00 | 0.00 | 69 | 1009.2 |
| 20260504025134 | 39 | 282 | 1.0 | 2.0 | 0.00 | 0.00 | 0.00 | 69 | 1009.1 |
| 20260504024134 | 39 | 293 | 1.0 | 2.0 | 0.00 | 0.00 | 0.00 | 68 | 1009.1 |
| 20260504023134 | 40 | 307 | 1.0 | 2.0 | 0.00 | 0.00 | 0.00 | 66 | 1009.3 |
| 20260504022135 | 40 | 292 | 1.0 | 2.0 | 0.00 | 0.00 | 0.00 | 66 | 1009.1 |
| 20260504021135 | 40 | 298 | 1.0 | 2.0 | 0.00 | 0.00 | 0.00 | 65 | 1009.1 |
| 20260504020134 | 40 | 4 | 1.0 | 2.0 | 0.00 | 0.00 | 0.00 | 65 | 1008.9 |
| 20260504015135 | 40 | 5 | 1.0 | 2.0 | 0.00 | 0.00 | 0.00 | 64 | 1008.9 |